Year,Month,Day,Hour,Minute,Value (Times are PST for temperature in C)
2015,08,19,00,00,23.20
2015,08,19,00,01,23.20
2015,08,19,00,02,23.20
2015,08,19,00,03,23.30
2015,08,19,00,04,23.20
2015,08,19,00,05,23.20
2015,08,19,00,06,23.20
2015,08,19,00,07,23.20
2015,08,19,00,08,23.20
2015,08,19,00,09,23.20
2015,08,19,00,10,23.20
2015,08,19,00,11,23.20
2015,08,19,00,12,23.20
2015,08,19,00,13,23.20
2015,08,19,00,14,23.20
2015,08,19,00,15,23.20
2015,08,19,00,16,23.20
2015,08,19,00,17,23.20
2015,08,19,00,18,23.20
2015,08,19,00,19,23.20
2015,08,19,00,20,23.20
2015,08,19,00,21,23.20
2015,08,19,00,22,23.30
2015,08,19,00,23,23.30
2015,08,19,00,24,23.30
2015,08,19,00,25,23.30
2015,08,19,00,26,23.30
2015,08,19,00,27,23.30
2015,08,19,00,28,23.30
2015,08,19,00,29,23.30
2015,08,19,00,30,23.30
2015,08,19,00,31,23.30
2015,08,19,00,32,23.30
2015,08,19,00,33,23.30
2015,08,19,00,34,23.30
2015,08,19,00,35,23.30
2015,08,19,00,36,23.30
2015,08,19,00,37,23.30
2015,08,19,00,38,23.30
2015,08,19,00,39,23.30
2015,08,19,00,40,23.30
2015,08,19,00,41,23.30
2015,08,19,00,42,23.30
2015,08,19,00,43,23.30
2015,08,19,00,44,23.30
2015,08,19,00,45,23.30
2015,08,19,00,46,23.30
2015,08,19,00,47,23.30
2015,08,19,00,48,23.30
2015,08,19,00,49,23.30
2015,08,19,00,50,23.30
2015,08,19,00,51,23.30
2015,08,19,00,52,23.30
2015,08,19,00,53,23.30
2015,08,19,00,54,23.30
2015,08,19,00,55,23.30
2015,08,19,00,56,23.30
2015,08,19,00,57,23.30
2015,08,19,00,58,23.30
2015,08,19,00,59,23.30
2015,08,19,01,00,23.30
2015,08,19,01,01,23.30
2015,08,19,01,02,23.30
2015,08,19,01,03,23.30
2015,08,19,01,04,23.30
2015,08,19,01,05,23.30
2015,08,19,01,06,23.30
2015,08,19,01,07,23.30
2015,08,19,01,08,23.30
2015,08,19,01,09,23.30
2015,08,19,01,10,23.30
2015,08,19,01,11,23.30
2015,08,19,01,12,23.20
2015,08,19,01,13,23.20
2015,08,19,01,14,23.20
2015,08,19,01,15,23.20
2015,08,19,01,16,23.20
2015,08,19,01,17,23.20
2015,08,19,01,18,23.20
2015,08,19,01,19,23.20
2015,08,19,01,20,23.20
2015,08,19,01,21,23.20
2015,08,19,01,22,23.20
2015,08,19,01,23,23.20
2015,08,19,01,24,23.10
2015,08,19,01,25,23.10
2015,08,19,01,26,23.10
2015,08,19,01,27,23.10
2015,08,19,01,28,23.10
2015,08,19,01,29,23.10
2015,08,19,01,30,23.10
2015,08,19,01,31,23.00
2015,08,19,01,32,23.00
2015,08,19,01,33,23.00
2015,08,19,01,34,23.00
2015,08,19,01,35,23.00
2015,08,19,01,36,23.00
2015,08,19,01,37,23.00
2015,08,19,01,38,23.00
2015,08,19,01,39,23.10
2015,08,19,01,40,23.10
2015,08,19,01,41,23.10
2015,08,19,01,42,23.10
2015,08,19,01,43,23.10
2015,08,19,01,44,23.10
2015,08,19,01,45,23.10
2015,08,19,01,46,23.10
2015,08,19,01,47,23.10
2015,08,19,01,48,23.10
2015,08,19,01,49,23.10
2015,08,19,01,50,23.10
2015,08,19,01,51,23.10
2015,08,19,01,52,23.10
2015,08,19,01,53,23.10
2015,08,19,01,54,23.10
2015,08,19,01,55,23.10
2015,08,19,01,56,23.10
2015,08,19,01,57,23.10
2015,08,19,01,58,23.10
2015,08,19,01,59,23.10
2015,08,19,02,00,23.00
2015,08,19,02,01,23.00
2015,08,19,02,02,23.00
2015,08,19,02,03,23.00
2015,08,19,02,04,23.00
2015,08,19,02,05,23.00
2015,08,19,02,06,23.00
2015,08,19,02,07,23.00
2015,08,19,02,08,23.00
2015,08,19,02,09,23.00
2015,08,19,02,10,23.00
2015,08,19,02,11,23.00
2015,08,19,02,12,23.00
2015,08,19,02,28,22.40
2015,08,19,02,29,22.40
2015,08,19,02,30,22.40
2015,08,19,02,31,22.40
2015,08,19,02,32,22.40
2015,08,19,02,33,22.40
2015,08,19,02,34,22.40
2015,08,19,02,35,22.30
2015,08,19,02,36,22.30
2015,08,19,02,37,22.30
2015,08,19,02,38,22.30
2015,08,19,02,39,22.30
2015,08,19,02,40,22.30
2015,08,19,02,41,22.30
2015,08,19,02,42,22.30
2015,08,19,02,43,22.30
2015,08,19,02,44,22.20
2015,08,19,02,45,22.20
2015,08,19,02,46,22.20
2015,08,19,02,47,22.20
2015,08,19,02,48,22.20
2015,08,19,02,49,22.20
2015,08,19,02,50,22.10
2015,08,19,02,51,22.10
2015,08,19,02,52,22.10
2015,08,19,02,53,22.10
2015,08,19,02,54,22.10
2015,08,19,02,55,22.10
2015,08,19,02,56,22.00
2015,08,19,02,57,22.00
2015,08,19,02,58,22.00
2015,08,19,02,59,22.00
2015,08,19,03,00,22.00
2015,08,19,03,01,22.00
2015,08,19,03,02,21.90
2015,08,19,03,03,21.90
2015,08,19,03,04,21.90
2015,08,19,03,05,21.90
2015,08,19,03,06,21.90
2015,08,19,03,07,21.90
2015,08,19,03,08,21.80
2015,08,19,03,09,21.80
2015,08,19,03,10,21.80
2015,08,19,03,11,21.80
2015,08,19,03,12,21.80
2015,08,19,03,13,21.80
2015,08,19,03,14,21.80
2015,08,19,03,15,21.80
2015,08,19,03,16,21.70
2015,08,19,03,17,21.70
2015,08,19,03,18,21.70
2015,08,19,03,19,21.70
2015,08,19,03,20,21.70
2015,08,19,03,21,21.70
2015,08,19,03,22,21.70
2015,08,19,03,23,21.70
2015,08,19,03,24,21.70
2015,08,19,03,25,21.70
2015,08,19,03,26,21.70
2015,08,19,03,27,21.70
2015,08,19,03,28,21.70
2015,08,19,03,29,21.70
2015,08,19,03,30,21.70
2015,08,19,03,31,21.60
2015,08,19,03,32,21.60
2015,08,19,03,33,21.60
2015,08,19,03,34,21.60
2015,08,19,03,35,21.60
2015,08,19,03,36,21.50
2015,08,19,03,37,21.50
2015,08,19,03,38,21.40
2015,08,19,03,39,21.40
2015,08,19,03,40,21.40
2015,08,19,03,41,21.40
2015,08,19,03,42,21.30
2015,08,19,03,43,21.30
2015,08,19,03,44,21.30
2015,08,19,03,45,21.20
2015,08,19,03,46,21.20
2015,08,19,03,47,21.20
2015,08,19,03,48,21.20
2015,08,19,03,49,21.20
2015,08,19,03,50,21.20
2015,08,19,03,51,21.20
2015,08,19,03,52,21.10
2015,08,19,03,53,21.10
2015,08,19,03,54,21.10
2015,08,19,03,55,21.10
2015,08,19,03,56,21.10
2015,08,19,03,57,21.10
2015,08,19,03,58,21.10
2015,08,19,03,59,21.10
2015,08,19,04,00,21.10
2015,08,19,04,01,21.00
2015,08,19,04,02,21.00
2015,08,19,04,03,21.00
2015,08,19,04,04,21.00
2015,08,19,04,05,21.00
2015,08,19,04,06,21.00
2015,08,19,04,07,21.00
2015,08,19,04,08,21.00
2015,08,19,04,09,21.00
2015,08,19,04,10,21.00
2015,08,19,04,11,21.10
2015,08,19,04,12,21.10
2015,08,19,04,13,21.10
2015,08,19,04,14,21.10
2015,08,19,04,15,21.10
2015,08,19,04,16,21.10
2015,08,19,04,17,21.20
2015,08,19,04,18,21.10
2015,08,19,04,19,21.10
2015,08,19,04,20,21.10
2015,08,19,04,21,21.10
2015,08,19,04,22,21.10
2015,08,19,04,23,21.10
2015,08,19,04,24,21.10
2015,08,19,04,25,21.20
2015,08,19,04,26,21.20
2015,08,19,04,27,21.20
2015,08,19,04,28,21.20
2015,08,19,04,29,21.20
2015,08,19,04,30,21.20
2015,08,19,04,31,21.20
2015,08,19,04,32,21.20
2015,08,19,04,33,21.20
2015,08,19,04,34,21.20
2015,08,19,04,35,21.10
2015,08,19,04,36,21.10
2015,08,19,04,37,21.10
2015,08,19,04,38,21.10
2015,08,19,04,39,21.10
2015,08,19,04,40,21.10
2015,08,19,04,41,21.10
2015,08,19,04,42,21.10
2015,08,19,04,43,21.10
2015,08,19,04,44,21.00
2015,08,19,04,45,21.00
2015,08,19,04,46,21.00
2015,08,19,04,47,21.00
2015,08,19,04,48,20.90
2015,08,19,04,49,20.90
2015,08,19,04,50,20.90
2015,08,19,04,51,20.90
2015,08,19,04,52,20.90
2015,08,19,04,53,20.90
2015,08,19,04,54,20.90
2015,08,19,04,55,20.90
2015,08,19,04,56,20.80
2015,08,19,04,57,20.80
2015,08,19,04,58,20.80
2015,08,19,04,59,20.80
2015,08,19,05,00,20.80
2015,08,19,05,01,20.80
2015,08,19,05,02,20.80
2015,08,19,05,03,20.80
2015,08,19,05,04,20.70
2015,08,19,05,05,20.70
2015,08,19,05,06,20.70
2015,08,19,05,07,20.70
2015,08,19,05,08,20.70
2015,08,19,05,09,20.70
2015,08,19,05,10,20.70
2015,08,19,05,11,20.70
2015,08,19,05,12,20.70
2015,08,19,05,13,20.60
2015,08,19,05,14,20.60
2015,08,19,05,15,20.60
2015,08,19,05,16,20.60
2015,08,19,05,17,20.60
2015,08,19,05,18,20.60
2015,08,19,05,19,20.50
2015,08,19,05,20,20.50
2015,08,19,05,21,20.50
2015,08,19,05,22,20.50
2015,08,19,05,23,20.50
2015,08,19,05,24,20.40
2015,08,19,05,25,20.40
2015,08,19,05,26,20.40
2015,08,19,05,27,20.40
2015,08,19,05,28,20.50
2015,08,19,05,29,20.50
2015,08,19,05,30,20.60
2015,08,19,05,31,20.60
2015,08,19,05,32,20.60
2015,08,19,05,33,20.70
2015,08,19,05,34,20.70
2015,08,19,05,35,20.70
2015,08,19,05,36,20.70
2015,08,19,05,37,20.80
2015,08,19,05,38,20.80
2015,08,19,05,39,20.80
2015,08,19,05,40,20.80
2015,08,19,05,41,20.80
2015,08,19,05,42,20.90
2015,08,19,05,43,20.90
2015,08,19,05,44,20.90
2015,08,19,05,45,20.90
2015,08,19,05,46,20.90
2015,08,19,05,47,20.90
2015,08,19,05,48,20.90
2015,08,19,05,49,20.90
2015,08,19,05,50,20.90
2015,08,19,05,51,21.00
2015,08,19,05,52,21.00
2015,08,19,05,53,21.00
2015,08,19,05,54,21.00
2015,08,19,05,55,21.00
2015,08,19,05,56,21.10
2015,08,19,05,57,21.10
2015,08,19,05,58,21.10
2015,08,19,05,59,21.20
2015,08,19,06,00,21.20
2015,08,19,06,01,21.20
2015,08,19,06,02,21.20
2015,08,19,06,03,21.20
2015,08,19,06,04,21.20
2015,08,19,06,05,21.20
2015,08,19,06,06,21.20
2015,08,19,06,07,21.20
2015,08,19,06,08,21.20
2015,08,19,06,09,21.20
2015,08,19,06,10,21.20
2015,08,19,06,11,21.20
2015,08,19,06,12,21.20
2015,08,19,06,13,21.20
2015,08,19,06,14,21.20
2015,08,19,06,15,21.20
2015,08,19,06,16,21.20
2015,08,19,06,17,21.20
2015,08,19,06,18,21.20
2015,08,19,06,19,21.20
2015,08,19,06,20,21.20
2015,08,19,06,21,21.20
2015,08,19,06,22,21.20
2015,08,19,06,23,21.20
2015,08,19,06,24,21.20
2015,08,19,06,25,21.20
2015,08,19,06,26,21.20
2015,08,19,06,27,21.20
2015,08,19,06,28,21.20
2015,08,19,06,29,21.20
2015,08,19,06,30,21.20
2015,08,19,06,31,21.20
2015,08,19,06,32,21.20
2015,08,19,06,33,21.20
2015,08,19,06,34,21.20
2015,08,19,06,35,21.20
2015,08,19,06,36,21.20
2015,08,19,06,37,21.20
2015,08,19,06,38,21.20
2015,08,19,06,39,21.20
2015,08,19,06,40,21.20
2015,08,19,06,41,21.20
2015,08,19,06,42,21.20
2015,08,19,06,43,21.20
2015,08,19,06,44,21.20
2015,08,19,06,45,21.30
2015,08,19,06,46,21.30
2015,08,19,06,47,21.30
2015,08,19,06,48,21.30
2015,08,19,06,49,21.30
2015,08,19,06,50,21.30
2015,08,19,06,51,21.30
2015,08,19,06,52,21.30
2015,08,19,06,53,21.30
2015,08,19,06,54,21.30
2015,08,19,06,55,21.30
2015,08,19,06,56,21.40
2015,08,19,06,57,21.40
2015,08,19,06,58,21.40
2015,08,19,06,59,21.40
2015,08,19,07,00,21.40
2015,08,19,07,01,21.40
2015,08,19,07,02,21.40
2015,08,19,07,03,21.40
2015,08,19,07,04,21.40
2015,08,19,07,05,21.40
2015,08,19,07,06,21.40
2015,08,19,07,07,21.40
2015,08,19,07,08,21.40
2015,08,19,07,09,21.40
2015,08,19,07,10,21.50
2015,08,19,07,11,21.50
2015,08,19,07,12,21.50
2015,08,19,07,13,21.50
2015,08,19,07,14,21.50
2015,08,19,07,15,21.50
2015,08,19,07,16,21.50
2015,08,19,07,17,21.50
2015,08,19,07,18,21.50
2015,08,19,07,19,21.50
2015,08,19,07,20,21.50
2015,08,19,07,21,21.60
2015,08,19,07,22,21.60
2015,08,19,07,23,21.60
2015,08,19,07,24,21.60
2015,08,19,07,25,21.60
2015,08,19,07,26,21.60
2015,08,19,07,27,21.60
2015,08,19,07,28,21.70
2015,08,19,07,29,21.70
2015,08,19,07,30,21.70
2015,08,19,07,31,21.70
2015,08,19,07,32,21.70
2015,08,19,07,33,21.70
2015,08,19,07,34,21.70
2015,08,19,07,35,21.70
2015,08,19,07,36,21.70
2015,08,19,07,37,21.70
2015,08,19,07,38,21.70
2015,08,19,07,39,21.70
2015,08,19,07,40,21.70
2015,08,19,07,41,21.70
2015,08,19,07,42,21.70
2015,08,19,07,43,21.70
2015,08,19,07,44,21.70
2015,08,19,07,45,21.70
2015,08,19,07,46,21.70
2015,08,19,07,47,21.70
2015,08,19,07,48,21.70
2015,08,19,07,49,21.70
2015,08,19,07,50,21.60
2015,08,19,07,51,21.60
2015,08,19,07,52,21.60
2015,08,19,07,53,21.60
2015,08,19,07,54,21.60
2015,08,19,07,55,21.60
2015,08,19,07,56,21.60
2015,08,19,07,57,21.60
2015,08,19,07,58,21.60
2015,08,19,07,59,21.60
2015,08,19,08,00,21.60
2015,08,19,08,01,21.60
2015,08,19,08,02,21.60
2015,08,19,08,03,21.60
2015,08,19,08,04,21.60
2015,08,19,08,05,21.60
2015,08,19,08,06,21.60
2015,08,19,08,07,21.60
2015,08,19,08,08,21.60
2015,08,19,08,09,21.60
2015,08,19,08,10,21.60
2015,08,19,08,11,21.60
2015,08,19,08,12,21.60
2015,08,19,08,13,21.60
2015,08,19,08,14,21.70
2015,08,19,08,15,21.70
2015,08,19,08,16,21.70
2015,08,19,08,17,21.70
2015,08,19,08,18,21.70
2015,08,19,08,19,21.70
2015,08,19,08,20,21.70
2015,08,19,08,21,21.70
2015,08,19,08,22,21.70
2015,08,19,08,23,21.70
2015,08,19,08,24,21.70
2015,08,19,08,25,21.70
2015,08,19,08,26,21.70
2015,08,19,08,27,21.80
2015,08,19,08,28,21.80
2015,08,19,08,29,21.80
2015,08,19,08,30,21.80
2015,08,19,08,31,21.80
2015,08,19,08,32,21.80
2015,08,19,08,33,21.80
2015,08,19,08,34,21.80
2015,08,19,08,35,21.80
2015,08,19,08,36,21.80
2015,08,19,08,37,21.80
2015,08,19,08,38,21.80
2015,08,19,08,39,21.80
2015,08,19,08,40,21.80
2015,08,19,08,41,21.80
2015,08,19,08,42,21.90
2015,08,19,08,43,21.90
2015,08,19,08,44,21.90
2015,08,19,08,45,21.90
2015,08,19,08,46,22.00
2015,08,19,08,47,22.00
2015,08,19,08,48,22.00
2015,08,19,08,49,22.00
2015,08,19,08,50,22.00
2015,08,19,08,51,22.00
2015,08,19,08,52,22.10
2015,08,19,08,53,22.10
2015,08,19,08,54,22.10
2015,08,19,08,55,22.10
2015,08,19,08,56,22.10
2015,08,19,08,57,22.20
2015,08,19,08,58,22.20
2015,08,19,08,59,22.20
2015,08,19,09,00,22.20
2015,08,19,09,01,22.20
2015,08,19,09,02,22.20
2015,08,19,09,03,22.20
2015,08,19,09,04,22.20
2015,08,19,09,05,22.20
2015,08,19,09,06,22.30
2015,08,19,09,07,22.30
2015,08,19,09,08,22.30
2015,08,19,09,09,22.30
2015,08,19,09,10,22.30
2015,08,19,09,11,22.40
2015,08,19,09,12,22.40
2015,08,19,09,13,22.40
2015,08,19,09,14,22.30
2015,08,19,09,15,22.30
2015,08,19,09,16,22.40
2015,08,19,09,17,22.40
2015,08,19,09,18,22.50
2015,08,19,09,19,22.50
2015,08,19,09,20,22.60
2015,08,19,09,21,22.60
2015,08,19,09,22,22.70
2015,08,19,09,23,22.70
2015,08,19,09,24,22.70
2015,08,19,09,25,22.80
2015,08,19,09,26,22.80
2015,08,19,09,27,22.90
2015,08,19,09,28,22.90
2015,08,19,09,29,22.90
2015,08,19,09,30,23.00
2015,08,19,09,31,23.00
2015,08,19,09,32,23.10
2015,08,19,09,33,23.10
2015,08,19,09,34,23.10
2015,08,19,09,35,23.10
2015,08,19,09,36,23.00
2015,08,19,09,37,23.00
2015,08,19,09,38,22.90
2015,08,19,09,39,22.90
2015,08,19,09,40,22.90
2015,08,19,09,41,22.90
2015,08,19,09,42,22.90
2015,08,19,09,43,22.80
2015,08,19,09,44,22.80
2015,08,19,09,45,22.80
2015,08,19,09,46,22.80
2015,08,19,09,47,22.80
2015,08,19,09,48,22.90
2015,08,19,09,49,22.90
2015,08,19,09,50,22.90
2015,08,19,09,51,22.90
2015,08,19,09,52,22.90
2015,08,19,09,53,22.90
2015,08,19,09,54,23.00
2015,08,19,09,55,23.00
2015,08,19,09,56,23.00
2015,08,19,09,57,23.10
2015,08,19,09,58,23.10
2015,08,19,09,59,23.10
2015,08,19,10,00,23.10
2015,08,19,10,01,23.10
2015,08,19,10,02,23.10
2015,08,19,10,03,23.10
2015,08,19,10,04,23.10
2015,08,19,10,05,23.10
2015,08,19,10,06,23.10
2015,08,19,10,07,23.10
2015,08,19,10,08,23.20
2015,08,19,10,09,23.20
2015,08,19,10,10,23.20
2015,08,19,10,11,23.20
2015,08,19,10,12,23.20
2015,08,19,10,13,23.20
2015,08,19,10,14,23.20
2015,08,19,10,15,23.20
2015,08,19,10,16,23.20
2015,08,19,10,17,23.20
2015,08,19,10,18,23.30
2015,08,19,10,19,23.30
2015,08,19,10,20,23.30
2015,08,19,10,21,23.30
2015,08,19,10,22,23.30
2015,08,19,10,23,23.30
2015,08,19,10,24,23.30
2015,08,19,10,25,23.30
2015,08,19,10,26,23.30
2015,08,19,10,27,23.20
2015,08,19,10,28,23.20
2015,08,19,10,29,23.20
2015,08,19,10,30,23.20
2015,08,19,10,31,23.20
2015,08,19,10,32,23.10
2015,08,19,10,33,23.10
2015,08,19,10,34,23.10
2015,08,19,10,35,23.10
2015,08,19,10,36,23.10
2015,08,19,10,37,23.10
2015,08,19,10,38,23.00
2015,08,19,10,39,23.00
2015,08,19,10,40,23.00
2015,08,19,10,41,23.00
2015,08,19,10,42,23.00
2015,08,19,10,43,23.10
2015,08,19,10,44,23.10
2015,08,19,10,45,23.10
2015,08,19,10,46,23.20
2015,08,19,10,47,23.20
2015,08,19,10,48,23.20
2015,08,19,10,49,23.30
2015,08,19,10,50,23.30
2015,08,19,10,51,23.30
2015,08,19,10,52,23.30
2015,08,19,10,53,23.30
2015,08,19,10,54,23.30
2015,08,19,10,55,23.30
2015,08,19,10,56,23.30
2015,08,19,10,57,23.20
2015,08,19,10,58,23.20
2015,08,19,10,59,23.20
2015,08,19,11,00,23.20
2015,08,19,11,01,23.20
2015,08,19,11,02,23.20
2015,08,19,11,03,23.30
2015,08,19,11,04,23.30
2015,08,19,11,05,23.40
2015,08,19,11,06,23.40
2015,08,19,11,07,23.30
2015,08,19,11,08,23.20
2015,08,19,11,09,23.20
2015,08,19,11,10,23.20
2015,08,19,11,11,23.20
2015,08,19,11,12,23.20
2015,08,19,11,13,23.20
2015,08,19,11,14,23.20
2015,08,19,11,15,23.20
2015,08,19,11,16,23.20
2015,08,19,11,17,23.30
2015,08,19,11,18,23.30
2015,08,19,11,19,23.40
2015,08,19,11,20,23.40
2015,08,19,11,21,23.40
2015,08,19,11,22,23.40
2015,08,19,11,23,23.40
2015,08,19,11,24,23.40
2015,08,19,11,25,23.30
2015,08,19,11,26,23.30
2015,08,19,11,27,23.30
2015,08,19,11,28,23.30
2015,08,19,11,29,23.30
2015,08,19,11,30,23.30
2015,08,19,11,31,23.30
2015,08,19,11,32,23.30
2015,08,19,11,33,23.30
2015,08,19,11,34,23.30
2015,08,19,11,35,23.40
2015,08,19,11,36,23.40
2015,08,19,11,37,23.50
2015,08,19,11,38,23.50
2015,08,19,11,39,23.60
2015,08,19,11,40,23.60
2015,08,19,11,41,23.60
2015,08,19,11,42,23.60
2015,08,19,11,43,23.60
2015,08,19,11,44,23.60
2015,08,19,11,45,23.60
2015,08,19,11,46,23.60
2015,08,19,11,47,23.60
2015,08,19,11,48,23.60
2015,08,19,11,49,23.60
2015,08,19,11,50,23.70
2015,08,19,11,51,23.70
2015,08,19,11,52,23.60
2015,08,19,11,53,23.60
2015,08,19,11,54,23.60
2015,08,19,11,55,23.60
2015,08,19,11,56,23.60
2015,08,19,11,57,23.60
2015,08,19,11,58,23.70
2015,08,19,11,59,23.70
2015,08,19,12,00,23.80
2015,08,19,12,01,23.70
2015,08,19,12,02,23.60
2015,08,19,12,03,23.60
2015,08,19,12,04,23.60
2015,08,19,12,05,23.60
2015,08,19,12,06,23.60
2015,08,19,12,07,23.60
2015,08,19,12,08,23.60
2015,08,19,12,09,23.70
2015,08,19,12,10,23.70
2015,08,19,12,11,23.60
2015,08,19,12,12,23.70
2015,08,19,12,13,23.70
2015,08,19,12,14,23.70
2015,08,19,12,15,23.80
2015,08,19,12,16,23.90
2015,08,19,12,17,24.00
2015,08,19,12,18,24.20
2015,08,19,12,19,24.30
2015,08,19,12,20,24.40
2015,08,19,12,21,24.40
2015,08,19,12,22,24.40
2015,08,19,12,23,24.40
2015,08,19,12,24,24.30
2015,08,19,12,25,24.20
2015,08,19,12,26,24.20
2015,08,19,12,27,24.20
2015,08,19,12,28,24.20
2015,08,19,12,29,24.20
2015,08,19,12,30,24.20
2015,08,19,12,31,24.30
2015,08,19,12,32,24.40
2015,08,19,12,33,24.40
2015,08,19,12,34,24.50
2015,08,19,12,35,24.50
2015,08,19,12,36,24.50
2015,08,19,12,37,24.60
2015,08,19,12,38,24.60
2015,08,19,12,39,24.70
2015,08,19,12,40,24.70
2015,08,19,12,41,24.70
2015,08,19,12,42,24.80
2015,08,19,12,43,24.80
2015,08,19,12,44,24.80
2015,08,19,12,45,24.90
2015,08,19,12,46,24.90
2015,08,19,12,47,25.10
2015,08,19,12,48,25.20
2015,08,19,12,49,25.20
2015,08,19,12,50,25.20
2015,08,19,12,51,25.20
2015,08,19,12,52,25.20
2015,08,19,12,53,25.20
2015,08,19,12,54,25.20
2015,08,19,12,55,25.30
2015,08,19,12,56,25.30
2015,08,19,12,57,25.30
2015,08,19,12,58,25.30
2015,08,19,12,59,25.30
2015,08,19,13,00,25.30
2015,08,19,13,01,25.40
2015,08,19,13,02,25.50
2015,08,19,13,03,25.60
2015,08,19,13,04,25.70
2015,08,19,13,05,25.80
2015,08,19,13,06,25.80
2015,08,19,13,07,25.90
2015,08,19,13,08,25.90
2015,08,19,13,09,25.90
2015,08,19,13,10,25.90
2015,08,19,13,11,25.90
2015,08,19,13,12,26.00
2015,08,19,13,13,26.00
2015,08,19,13,14,26.00
2015,08,19,13,15,26.10
2015,08,19,13,16,26.00
2015,08,19,13,17,25.90
2015,08,19,13,18,25.90
2015,08,19,13,19,25.90
2015,08,19,13,20,25.90
2015,08,19,13,21,25.80
2015,08,19,13,22,25.60
2015,08,19,13,23,25.50
2015,08,19,13,24,25.50
2015,08,19,13,25,25.50
2015,08,19,13,26,25.50
2015,08,19,13,27,25.50
2015,08,19,13,28,25.60
2015,08,19,13,29,25.60
2015,08,19,13,30,25.60
2015,08,19,13,31,25.50
2015,08,19,13,32,25.40
2015,08,19,13,33,25.40
2015,08,19,13,34,25.40
2015,08,19,13,35,25.50
2015,08,19,13,36,25.50
2015,08,19,13,37,25.60
2015,08,19,13,38,25.60
2015,08,19,13,39,25.50
2015,08,19,13,40,25.40
2015,08,19,13,41,25.50
2015,08,19,13,42,25.50
2015,08,19,13,43,25.60
2015,08,19,13,44,25.60
2015,08,19,13,45,25.70
2015,08,19,13,46,25.80
2015,08,19,13,47,25.90
2015,08,19,13,48,26.00
2015,08,19,13,49,26.20
2015,08,19,13,50,26.30
2015,08,19,13,51,26.30
2015,08,19,13,52,26.20
2015,08,19,13,53,26.20
2015,08,19,13,54,26.20
2015,08,19,13,55,26.10
2015,08,19,13,56,26.00
2015,08,19,13,57,25.80
2015,08,19,13,58,25.70
2015,08,19,13,59,25.70
2015,08,19,14,00,25.70
2015,08,19,14,01,25.80
2015,08,19,14,02,25.80
2015,08,19,14,03,25.90
2015,08,19,14,04,25.90
2015,08,19,14,05,25.90
2015,08,19,14,06,25.80
2015,08,19,14,07,25.80
2015,08,19,14,08,25.80
2015,08,19,14,09,25.80
2015,08,19,14,10,25.90
2015,08,19,14,11,25.90
2015,08,19,14,12,26.00
2015,08,19,14,13,26.10
2015,08,19,14,14,26.10
2015,08,19,14,15,26.10
2015,08,19,14,16,26.10
2015,08,19,14,17,26.20
2015,08,19,14,18,26.20
2015,08,19,14,19,26.20
2015,08,19,14,20,26.10
2015,08,19,14,21,26.10
2015,08,19,14,22,26.20
2015,08,19,14,23,26.20
2015,08,19,14,24,26.20
2015,08,19,14,25,26.10
2015,08,19,14,26,26.10
2015,08,19,14,27,26.10
2015,08,19,14,28,26.10
2015,08,19,14,29,26.10
2015,08,19,14,30,26.10
2015,08,19,14,31,26.10
2015,08,19,14,32,26.10
2015,08,19,14,33,26.10
2015,08,19,14,34,26.10
2015,08,19,14,35,26.10
2015,08,19,14,36,26.20
2015,08,19,14,37,26.20
2015,08,19,14,38,26.20
2015,08,19,14,39,26.30
2015,08,19,14,40,26.30
2015,08,19,14,41,26.30
2015,08,19,14,42,26.30
2015,08,19,14,43,26.40
2015,08,19,14,44,26.50
2015,08,19,14,45,26.60
2015,08,19,14,46,26.70
2015,08,19,14,47,26.70
2015,08,19,14,48,26.80
2015,08,19,14,49,26.80
2015,08,19,14,50,26.80
2015,08,19,14,51,26.80
2015,08,19,14,52,26.80
2015,08,19,14,53,26.80
2015,08,19,14,54,26.90
2015,08,19,14,55,26.90
2015,08,19,14,56,27.00
2015,08,19,14,57,27.00
2015,08,19,14,58,27.00
2015,08,19,14,59,27.00
2015,08,19,15,00,27.00
2015,08,19,15,01,26.90
2015,08,19,15,02,26.90
2015,08,19,15,03,26.90
2015,08,19,15,04,26.90
2015,08,19,15,05,26.90
2015,08,19,15,06,27.00
2015,08,19,15,07,27.00
2015,08,19,15,08,27.10
2015,08,19,15,09,27.20
2015,08,19,15,10,27.30
2015,08,19,15,11,27.50
2015,08,19,15,12,27.60
2015,08,19,15,13,27.60
2015,08,19,15,14,27.60
2015,08,19,15,15,27.60
2015,08,19,15,16,27.60
2015,08,19,15,17,27.50
2015,08,19,15,18,27.60
2015,08,19,15,19,27.50
2015,08,19,15,20,27.50
2015,08,19,15,21,27.50
2015,08,19,15,22,27.50
2015,08,19,15,23,27.50
2015,08,19,15,24,27.30
2015,08,19,15,25,27.20
2015,08,19,15,26,27.00
2015,08,19,15,27,26.90
2015,08,19,15,28,26.80
2015,08,19,15,29,26.70
2015,08,19,15,30,26.70
2015,08,19,15,31,26.70
2015,08,19,15,32,26.60
2015,08,19,15,33,26.60
2015,08,19,15,34,26.60
2015,08,19,15,35,26.50
2015,08,19,15,36,26.40
2015,08,19,15,37,26.40
2015,08,19,15,38,26.30
2015,08,19,15,39,26.30
2015,08,19,15,40,26.20
2015,08,19,15,41,26.20
2015,08,19,15,42,26.20
2015,08,19,15,43,26.10
2015,08,19,15,44,26.10
2015,08,19,15,45,26.00
2015,08,19,15,46,26.00
2015,08,19,15,47,26.00
2015,08,19,15,48,25.90
2015,08,19,15,49,25.90
2015,08,19,15,50,26.00
2015,08,19,15,51,26.00
2015,08,19,15,52,26.00
2015,08,19,15,53,26.10
2015,08,19,15,54,26.20
2015,08,19,15,55,26.20
2015,08,19,15,56,26.30
2015,08,19,15,57,26.30
2015,08,19,15,58,26.40
2015,08,19,15,59,26.40
2015,08,19,16,00,26.50
2015,08,19,16,01,26.60
2015,08,19,16,02,26.70
2015,08,19,16,03,26.70
2015,08,19,16,04,26.80
2015,08,19,16,05,26.90
2015,08,19,16,06,26.90
2015,08,19,16,07,26.90
2015,08,19,16,08,26.90
2015,08,19,16,09,26.90
2015,08,19,16,10,27.00
2015,08,19,16,11,27.00
2015,08,19,16,12,27.00
2015,08,19,16,13,26.90
2015,08,19,16,14,26.90
2015,08,19,16,15,26.90
2015,08,19,16,16,26.90
2015,08,19,16,17,26.90
2015,08,19,16,18,26.90
2015,08,19,16,19,27.00
2015,08,19,16,20,27.00
2015,08,19,16,21,27.10
2015,08,19,16,22,27.10
2015,08,19,16,23,27.10
2015,08,19,16,24,27.10
2015,08,19,16,25,27.10
2015,08,19,16,26,27.10
2015,08,19,16,27,27.10
2015,08,19,16,28,27.10
2015,08,19,16,29,27.10
2015,08,19,16,30,27.10
2015,08,19,16,31,27.10
2015,08,19,16,32,27.10
2015,08,19,16,33,27.00
2015,08,19,16,34,27.00
2015,08,19,16,35,26.90
2015,08,19,16,36,26.90
2015,08,19,16,37,26.90
2015,08,19,16,38,27.00
2015,08,19,16,39,27.00
2015,08,19,16,40,27.00
2015,08,19,16,41,27.00
2015,08,19,16,42,27.10
2015,08,19,16,43,27.10
2015,08,19,16,44,27.10
2015,08,19,16,45,27.00
2015,08,19,16,46,26.90
2015,08,19,16,47,27.00
2015,08,19,16,48,27.00
2015,08,19,16,49,27.00
2015,08,19,16,50,27.10
2015,08,19,16,51,27.10
2015,08,19,16,52,27.10
2015,08,19,16,53,27.10
2015,08,19,16,54,27.00
2015,08,19,16,55,26.90
2015,08,19,16,56,26.90
2015,08,19,16,57,26.80
2015,08,19,16,58,26.80
2015,08,19,16,59,26.80
2015,08,19,17,00,26.80
2015,08,19,17,01,26.80
2015,08,19,17,02,26.80
2015,08,19,17,03,26.80
2015,08,19,17,04,26.90
2015,08,19,17,05,26.90
2015,08,19,17,06,26.90
2015,08,19,17,07,27.00
2015,08,19,17,08,27.00
2015,08,19,17,09,27.00
2015,08,19,17,10,26.90
2015,08,19,17,11,26.90
2015,08,19,17,12,26.90
2015,08,19,17,13,27.00
2015,08,19,17,14,27.00
2015,08,19,17,15,27.00
2015,08,19,17,16,27.00
2015,08,19,17,17,26.90
2015,08,19,17,18,26.90
2015,08,19,17,19,26.90
2015,08,19,17,20,26.90
2015,08,19,17,21,26.80
2015,08,19,17,22,26.80
2015,08,19,17,23,26.80
2015,08,19,17,24,26.80
2015,08,19,17,25,26.70
2015,08,19,17,26,26.70
2015,08,19,17,27,26.70
2015,08,19,17,28,26.70
2015,08,19,17,29,26.80
2015,08,19,17,30,26.70
2015,08,19,17,31,26.70
2015,08,19,17,32,26.70
2015,08,19,17,33,26.70
2015,08,19,17,34,26.60